Weather in Kalach

Russia / Voronezh Oblast     50°25′26″N   41°00′58″E
temp.,
°C
wind,
m/s
gust,
m/s
humid.,
%
clouds,
%
prec.,
mm/h
press.,
hPa
HPBL,
m
28 february, sun
sun2800:00−1nnw6118292 0.1 1012603
03:00−4nnw478051 0.1 1014475
06:00−4nnw46800 0.0 1015429
09:00−4nnw467811 0.0 1016506
12:00−1nw467292 0.0 1016617
15:000nw577388 0.0 1016781
18:00−1nnw377989 0.0 1017478
21:00−2n238659 0.0 101992
1 march, mon
mon100:00−3ne238881 0.0 1020211
03:00−4n129176 0.0 1021131
06:00−5nne249066 0.0 1023273
09:00−5nne347853 0.0 1025368
12:00−3n226659 0.0 1026547
15:00−1nnw236145 0.0 1026739
18:00−2wnw227143 0.0 102654
21:00−3w357622 0.0 1026248
2 march, tue
tue200:00−3wsw488156 0.0 1025335
03:00−2wsw5117878 0.0 1023547
06:00−1wsw71478100 0.0 1020583
09:00−1wsw91591100 0.3 1017719
12:000w91597100 1.0 1014843
15:00+1w81397100 2.5 1012762
18:00+1nw7138995 0.2 1011781
21:00−1nw6138984 0.2 1013510
3 march, wed
wed300:00−1nw6139015 0.0 1013516
03:00−2wnw6129019 0.0 1013457
06:00−2nw6129278 0.0 1013531
09:00−1nw7118485 0.1 1015982
12:00−1nw81174100 0.1 10161074
15:000nnw8126486 0.1 10171302
18:00−1nw5127261 0.0 1019714
21:00−2nw5108358 0.0 1021801
4 march, thu
thu400:00−2nw498373 0.0 1022545
03:00−2wnw488781 0.1 1022331
06:00−2w358890 0.1 1023185
09:00−1wsw478045 0.1 1023445
12:00+1wsw697127 0.0 1021726
15:00+3wsw7106214 0.0 1019992
18:00+1sw512760 0.0 1017303
21:00+1sw614760 0.0 1016443